Ephrata, WA
on Thursday, February 21, 2013

Thursday
Previous Day Next Day
Daily Summary
 ActualAverageRecord
Temperature
Mean Temperature °F 36°F  
Max Temperature 50°F 45°F 64°F (1988)
Min Temperature 23°F 27°F 6°F (1952)
Degree Days
Heating Degree Days 28 29  
Month to date heating degree days 612 666  
Since 1 July heating degree days 4048 4374  
Cooling Degree Days 0 0  
Month to date cooling degree days 0 0  
Year to date cooling degree days 0 0  
Moisture
Dew Point 26°F   
Average Humidity 67    
Maximum Humidity 88    
Minimum Humidity 46    
Precipitation
Precipitation 0.00 in 0.03 in 0.23 in (1992)
Month to date precipitation T 0.55  
Year to date precipitation 0.19 1.46  
Wind
Wind Speed 8 mph   
Max Wind Speed 18 mph   
Max Gust Speed 30 mph   
Visibility 10 miles   
Events     

Key: T is trace of precipitation, MM is missing value
Source: NWS Daily Summary
Time(PST)TemperatureDew PointHumidity Pressure Visibility Wind DirectionWind SpeedGust SpeedPrecipitationEvents Conditions
12:53 AM 26.1°F 21.9°F 84% 30.01 in 10.0 miles North 8.1 mph - N/A   Clear
1:53 AM 27.0°F 21.9°F 81% 30.01 in 10.0 miles North 6.9 mph - N/A   Partly Cloudy
2:53 AM 25.0°F 21.0°F 85% 30.02 in 10.0 miles North 5.8 mph - N/A   Clear
3:53 AM 26.1°F 21.9°F 84% 30.01 in 10.0 miles North 6.9 mph - N/A   Clear
4:53 AM 24.1°F 19.9°F 84% 30.03 in 10.0 miles North 6.9 mph - N/A   Clear
5:53 AM 23.0°F 19.0°F 85% 30.02 in 10.0 miles NNE 5.8 mph - N/A   Clear
6:53 AM 25.0°F 21.9°F 88% 30.02 in 10.0 miles North 5.8 mph - N/A   Clear
7:53 AM 28.0°F 24.1°F 85% 30.03 in 10.0 miles NNE 5.8 mph - N/A   Overcast
8:53 AM 28.9°F 25.0°F 85% 30.02 in 10.0 miles NE 4.6 mph - N/A   Mostly Cloudy
9:23 AM 28.4°F 26.6°F 93% 29.98 in 10.0 miles NNE 5.8 mph - N/A   Scattered Clouds
9:53 AM 30.0°F 26.1°F 85% 30.04 in 10.0 miles NNE 5.8 mph - N/A   Mostly Cloudy
10:11 AM 30.2°F 26.6°F 86% 29.99 in 10.0 miles North 6.9 mph - N/A   Scattered Clouds
10:53 AM 30.9°F 27.0°F 85% 30.03 in 10.0 miles North 4.6 mph - N/A   Clear
11:53 AM 33.1°F 27.0°F 78% 30.03 in 10.0 miles SSW 24.2 mph 29.9 mph N/A   Scattered Clouds
12:53 PM 39.9°F 28.9°F 65% 30.00 in 10.0 miles SSW 5.8 mph - N/A   Clear
1:53 PM 43.0°F 28.9°F 58% 29.98 in 10.0 miles Variable 4.6 mph - N/A   Clear
2:53 PM 45.0°F 30.0°F 56% 29.97 in 10.0 miles South 9.2 mph - N/A   Clear
3:53 PM 48.9°F 28.0°F 44% 29.95 in 10.0 miles SW 13.8 mph - N/A   Clear
4:53 PM 44.1°F 30.0°F 58% 29.96 in 10.0 miles SSW 9.2 mph - N/A   Mostly Cloudy
5:53 PM 41.0°F 28.9°F 62% 29.97 in 10.0 miles SW 9.2 mph - N/A   Partly Cloudy
6:53 PM 39.0°F 28.9°F 67% 29.98 in 10.0 miles SSW 9.2 mph - N/A   Clear
7:53 PM 35.1°F 28.9°F 78% 29.97 in 10.0 miles SW 11.5 mph - N/A   Clear
8:53 PM 33.1°F 28.9°F 85% 29.98 in 10.0 miles SW 9.2 mph - N/A   Clear
9:53 PM 33.1°F 28.9°F 85% 29.98 in 10.0 miles SW 3.5 mph - N/A   Clear
11:53 PM 33.1°F 28.0°F 82% 29.97 in 10.0 miles SSW 10.4 mph - N/A   Clear
Moon Phase
Feb. 21 Feb. 25 Mar. 04 Mar. 11 Mar. 19
Sunrise:06:52 AM (PST) Moon Rise:01:40 PM (PST)2/21
Sunset:05:31 PM (PST) Moon Set:04:11 AM (PST)2/21

Copyright © 2014 The Weather Underground, Inc.